Weather History for Pineville, WV

Change the Weather History Date:

Tuesday, October 8, 2013

  Actual Average (KBKW) Record (KBKW)
Temperature  
Mean Temperature 57 °F 55 °F  
Max Temperature 71 °F 65 °F 86 °F (2007)
Min Temperature 43 °F 45 °F 20 °F (1953)
Degree Days  
Heating Degree Days 8 10  
Month to date heating degree days 72  
Since 1 July heating degree days 206  
Cooling Degree Days 0 0  
Month to date cooling degree days 2  
Year to date cooling degree days 552  
Growing Degree Days 7 (Base 50)    
Moisture  
Dew Point 47 °F    
Average Humidity 83    
Maximum Humidity 100    
Minimum Humidity 41    
Precipitation  
Precipitation 0.00 in 0.08 in 1.62 in (1907)
Month to date precipitation 0.65  
Year to date precipitation 33.32  
Snow  
Snow 0.00 in - - ()
Month to date snowfall  
Since 1 September snowfall  
Snow Depth -    
Sea Level Pressure  
Sea Level Pressure 30.25 in    
Wind  
Wind Speed - (North)    
Max Wind Speed -    
Max Gust Speed -    
Visibility 8 miles    
Events Fog    
T = Trace of Precipitation, MM = Missing Value Source: NWS Daily Summary

Daily Weather History Graph

Daily Weather History Graph

Search for Another Location

Airport:

Trip Planner

Search our weather history database for the weather conditions in past years. The results will help you decide how hot, cold, wet, or windy it might be!

Date:

Astronomy

Oct. 08, 2013 Rise Set
Actual Time 7:28 AM EDT 6:58 PM EDT
Civil Twilight 7:01 AM EDT 7:24 PM EDT
Nautical Twilight 6:31 AM EDT 7:55 PM EDT
Astronomical Twilight 6:01 AM EDT 8:25 PM EDT
Moon 11:16 AM EDT (10/8) 9:38 PM EDT (10/8)
Length of Visible Light 12h 22m
Length of Day
11h 30m
Waxing Crescent, 16% of the Moon is Illuminated
Oct 8
Waxing Crescent
Oct 11
First Quarter
Oct 18
Full
Oct 26
Last Quarter
Nov 3
New

Hourly Weather History & Observations

Time (EDT) Temp. Dew Point Humidity Pressure Visibility Wind Dir Wind Speed Gust Speed Precip Events Conditions
12:15 AM 45.7 °F 45.7 °F 100% 30.21 in 10.0 mi North - - N/A   Clear
12:35 AM 45.5 °F 45.5 °F 100% 30.21 in 10.0 mi North - - N/A   Clear
12:55 AM 45.0 °F 45.0 °F 100% 30.21 in 10.0 mi North - - N/A   Clear
1:15 AM 44.8 °F 44.8 °F 100% 30.20 in 10.0 mi North - - N/A   Clear
1:35 AM 44.4 °F 44.4 °F 100% 30.20 in 10.0 mi North - - N/A   Clear
1:55 AM 44.2 °F 44.2 °F 100% 30.20 in 10.0 mi North - - N/A   Clear
2:15 AM 43.7 °F 43.7 °F 100% 30.20 in 10.0 mi North - - N/A   Clear
2:35 AM 43.9 °F 43.9 °F 100% 30.20 in 10.0 mi North - - N/A   Mostly Cloudy
2:55 AM 44.2 °F 44.2 °F 100% 30.20 in 7.0 mi North - - N/A   Overcast
3:15 AM 45.1 °F 45.1 °F 100% 30.20 in 0.8 mi North - - N/A   Overcast
3:35 AM 45.5 °F 45.5 °F 100% 30.20 in 0.2 mi North - - N/A Fog Fog
3:55 AM 45.5 °F 45.5 °F 100% 30.20 in 0.5 mi North - - N/A Fog Fog
4:15 AM 44.6 °F 44.6 °F 100% 30.21 in 0.5 mi North - - N/A Fog Fog
4:35 AM 45.0 °F 45.0 °F 100% 30.22 in 0.5 mi North - - N/A Fog Fog
4:55 AM 45.5 °F 45.5 °F 100% 30.22 in 0.5 mi North - - N/A Fog Fog
5:15 AM 45.5 °F 45.5 °F 100% 30.23 in 0.2 mi North - - N/A Fog Fog
5:35 AM 45.5 °F 45.5 °F 100% 30.24 in 0.8 mi North - - N/A   Overcast
5:55 AM 44.6 °F 44.6 °F 100% 30.24 in 1.5 mi North - - N/A   Overcast
6:15 AM 44.6 °F 44.6 °F 100% 30.25 in 1.2 mi North - - N/A   Overcast
6:35 AM 43.7 °F 43.7 °F 100% 30.26 in 2.0 mi North - - N/A   Overcast
6:55 AM 43.7 °F 43.7 °F 100% 30.26 in 0.5 mi North - - N/A Fog Fog
7:15 AM 43.5 °F 43.5 °F 100% 30.27 in 0.2 mi North - - N/A Fog Fog
7:35 AM 43.3 °F 43.3 °F 100% 30.27 in 0.8 mi North - - N/A   Overcast
7:55 AM 43.5 °F 43.5 °F 100% 30.28 in 0.2 mi North - - N/A Fog Fog
8:15 AM 43.0 °F 43.0 °F 100% 30.28 in 0.2 mi North - - N/A Fog Fog
8:35 AM 43.9 °F 43.9 °F 100% 30.29 in 0.2 mi North - - N/A Fog Fog
8:55 AM 44.2 °F 44.2 °F 100% 30.29 in 1.8 mi North - - N/A   Overcast
9:15 AM 45.5 °F 45.5 °F 100% 30.30 in 1.5 mi North - - N/A   Overcast
9:35 AM 47.8 °F 47.8 °F 100% 30.29 in 10.0 mi North - - N/A   Scattered Clouds
9:55 AM 51.3 °F 51.3 °F 100% 30.29 in 10.0 mi North - - N/A   Clear
10:15 AM 54.5 °F 52.3 °F 92% 30.28 in 10.0 mi North - - N/A   Clear
10:35 AM 57.2 °F 51.4 °F 81% 30.29 in 10.0 mi North - - N/A   Clear
10:55 AM 59.4 °F 50.2 °F 72% 30.29 in 10.0 mi North - - N/A   Clear
11:15 AM 61.2 °F 48.6 °F 63% 30.28 in 10.0 mi North - - N/A   Clear
11:35 AM 62.8 °F 47.5 °F 57% 30.28 in 10.0 mi North - - N/A   Clear
11:55 AM 64.0 °F 47.1 °F 54% 30.28 in 10.0 mi North - - N/A   Clear
12:15 PM 65.1 °F 46.4 °F 51% 30.28 in 10.0 mi North - - N/A   Clear
12:35 PM 65.5 °F 46.0 °F 49% 30.28 in 10.0 mi North - - N/A   Clear
12:55 PM 67.3 °F 47.3 °F 49% 30.28 in 10.0 mi North - - N/A   Clear
1:15 PM 68.0 °F 46.4 °F 46% 30.27 in 10.0 mi North - - N/A   Clear
1:35 PM 68.2 °F 46.2 °F 45% 30.26 in 10.0 mi North - - N/A   Clear
1:55 PM 69.6 °F 46.4 °F 43% 30.25 in 10.0 mi North - - N/A   Clear
2:15 PM 70.0 °F 47.1 °F 44% 30.24 in 10.0 mi North - - N/A   Clear
2:35 PM 70.0 °F 46.6 °F 43% 30.24 in 10.0 mi North - - N/A   Clear
2:55 PM 70.7 °F 46.9 °F 43% 30.23 in 10.0 mi North - - N/A   Clear
3:15 PM 71.1 °F 46.0 °F 41% 30.24 in 10.0 mi North - - N/A   Clear
3:35 PM 70.9 °F 47.1 °F 43% 30.24 in 10.0 mi North - - N/A   Clear
3:55 PM 71.8 °F 46.6 °F 41% 30.24 in 10.0 mi North - - N/A   Clear
4:15 PM 71.1 °F 46.4 °F 41% 30.24 in 10.0 mi North - - N/A   Clear
4:35 PM 70.9 °F 47.8 °F 44% 30.24 in 10.0 mi North - - N/A   Clear
4:55 PM 68.7 °F 48.0 °F 48% 30.24 in 10.0 mi North - - N/A   Clear
5:15 PM 67.5 °F 48.7 °F 51% 30.23 in 10.0 mi North - - N/A   Clear
5:35 PM 63.9 °F 50.9 °F 63% 30.24 in 10.0 mi North - - N/A   Clear
5:55 PM 62.1 °F 49.8 °F 64% 30.24 in 10.0 mi North - - N/A   Clear
6:15 PM 60.4 °F 50.5 °F 70% 30.24 in 10.0 mi North - - N/A   Clear
6:35 PM 58.1 °F 51.6 °F 79% 30.25 in 10.0 mi North - - N/A   Clear
6:55 PM 56.7 °F 51.8 °F 84% 30.25 in 10.0 mi North - - N/A   Clear
7:15 PM 55.4 °F 51.8 °F 88% 30.25 in 10.0 mi North - - N/A   Clear
7:35 PM 54.0 °F 51.4 °F 91% 30.25 in 10.0 mi North - - N/A   Clear
7:55 PM 52.7 °F 50.9 °F 94% 30.25 in 10.0 mi North - - N/A   Clear
8:15 PM 51.8 °F 50.5 °F 95% 30.26 in 10.0 mi North - - N/A   Clear
8:35 PM 51.3 °F 50.2 °F 96% 30.26 in 10.0 mi North - - N/A   Clear
8:55 PM 50.9 °F 50.0 °F 97% 30.27 in 10.0 mi North - - N/A   Clear
9:15 PM 50.0 °F 49.5 °F 98% 30.27 in 10.0 mi North - - N/A   Clear
9:35 PM 50.4 °F 50.0 °F 99% 30.29 in 10.0 mi North - - N/A   Clear
9:55 PM 50.0 °F 49.3 °F 97% 30.29 in 10.0 mi North - - N/A   Clear
10:15 PM 49.5 °F 49.1 °F 99% 30.29 in 10.0 mi North - - N/A   Clear
10:35 PM 49.1 °F 48.7 °F 99% 30.29 in 10.0 mi North - - N/A   Clear
10:55 PM 48.4 °F 48.4 °F 100% 30.29 in 10.0 mi North - - N/A   Clear
11:15 PM 47.8 °F 47.8 °F 100% 30.29 in 10.0 mi North - - N/A   Clear
11:35 PM 47.7 °F 47.7 °F 100% 30.30 in 10.0 mi North - - N/A   Clear
11:55 PM 46.9 °F 46.9 °F 100% 30.30 in 10.0 mi North - - N/A   Clear